P/2005 JN (Spacewatch)                                                

T 2005 June 20.42229 TT                                 Nakano

q   2.2755586            (2000.0)            P               Q

n   0.15059967     Peri.  153.66865     -0.70861229     +0.69045559

a   3.4988074      Node    70.80223     -0.67149844     -0.59661107

e   0.3496188      Incl.    8.85629     -0.21669903     -0.40905540

P   6.54 (+/- 0.15 day)

From 24 observations 2005 Apr. 4-May 25.

Residuals in seconds of arc 

2005/                     050503 691  0.1+  0.1+    050512 693  0.4-  0.4-  

050404 703  1.5-  0.4-    050503 691  0.0   0.0     050513 703  0.0   0.2-  

050404 703  0.6+  1.5-    050504 691  0.2-  0.1-    050513 703  0.7+  0.1-  

050404 703  0.8+  0.3+    050504 691  0.0   0.4-    050513 703 (0.6+  3.1-) 

050404 703  0.9-  0.7+    050504 691  0.3-  0.4-    050513 703  0.3-  1.2-  

050415 699  0.2-  1.5+    050509 683  0.3+  0.2-    050517 J78 (2.1+  1.7-) 

050415 699  0.2+  0.1+    050509 683 (2.2-  0.5+)   050525 213  0.3+  0.6+  

050415 699 (2.4+  0.5-)   050509 683  0.2+  1.5+    050525 213  0.1+  0.4+  

050415 699  1.7+  0.3+    050512 693  0.5-  0.3-    050525 213  0.1+  0.2+  

050503 691  0.1-  0.2-    050512 693  0.6-  0.4-                            



NAKANO

         **** Don't distribute anyone except personal use only ****

                (C) Copyright 2005 OAA/ComputingSection

write mail from CFAD0::NAKANO on 2005-06-05 05:59:11(JST).

 



߂܂B